Location: �chenoz-la-M�line
(47.6009°N, 6.1354°E)
Time: 04:45:55
(UTC+00:00)

ALOS - Pass Details

Date: 27 January 2021
Orbit: 682 x 685 km, 97.9° (Epoch: 27 February)

Event Time Altitude Azimuth Distance (km) Brightness Sun altitude
Rises 04:33:46 0° 9° (N) 3,059 5.7 -25.9°
Reaches altitude 10° 04:36:03 10° 5° (N) 2,138 4.9 -25.5°
Enters shadow 04:37:50 23° 357° (N) 1,460 3.9 -25.2°
